AO-07 1 07530U 74089B 26162.30704456 -.00000029 00000-0 10909-3 0 9993 2 07530 101.9901 175.4923 0012510 141.0738 232.1031 12.53697971359786 UO-11 1 14781U 84021B 26161.91204285 .00001180 00000-0 12569-3 0 9999 2 14781 97.8055 127.5569 0007049 193.6299 166.4730 14.90767762256190 LO-19 1 20442U 90005G 26162.25161899 .00000095 00000-0 50788-4 0 9990 2 20442 98.8852 183.8935 0010806 219.4308 140.6090 14.34121336901540 AO-27 1 22825U 93061C 26162.12626692 .00000071 00000-0 43872-4 0 9995 2 22825 98.6880 229.5418 0009448 115.4791 244.7370 14.30940634706132 FO-29 1 24278U 96046B 26162.17452701 .00000010 00000-0 42847-4 0 9992 2 24278 98.5245 11.8704 0350825 111.9931 251.8871 13.53273891472352 GO-32 1 25397U 98043D 26162.23421909 .00000045 00000-0 39618-4 0 9997 2 25397 99.0066 154.8428 0000714 177.8276 182.2905 14.24427245450483 ISS 1 25544U 98067A 26162.12593356 .00002535 00000-0 53892-4 0 9997 2 25544 51.6353 330.0904 0005092 172.2857 187.8210 15.49161426570819 NO-44 1 26931U 01043C 26162.01291661 .00000063 00000-0 54402-4 0 9990 2 26931 67.0510 260.2410 0006099 264.4178 95.6229 14.31953913289565 SO-50 1 27607U 02058C 26162.22122948 .00000841 00000-0 11657-3 0 9990 2 27607 64.5506 147.4439 0075410 263.5789 95.6727 14.83033486263578 CO-55 1 27844U 03031E 26161.99583856 .00000244 00000-0 12458-3 0 9994 2 27844 98.6735 170.6324 0009111 196.3678 163.7208 14.24331910190791 RS-22 1 27939U 03042A 26162.31610131 .00000952 00000-0 15488-3 0 9997 2 27939 98.3474 346.5095 0010049 290.5789 194.1097 14.73457531214685 CO-65 1 32785U 08021C 26162.21622426 .00004490 00000-0 28480-3 0 9990 2 32785 97.8272 143.5105 0010317 56.6803 303.5412 15.09396423984293 CO-66 1 32791U 08021J 26162.25964504 .00015274 00000-0 48820-3 0 9999 2 32791 97.7517 159.8749 0001967 23.1856 336.9473 15.32546772986382 RS-30 1 32953U 08025A 26162.30404334 .00000033 00000-0 17017-3 0 9990 2 32953 82.5050 359.1008 0019093 327.1548 32.8344 12.43178948818965 SRMSAT 1 37841U 11058D 26162.13554769 .00000354 00000-0 48274-4 0 9996 2 37841 19.9714 96.0961 0011917 137.3112 254.6975 14.11574277756964 ZACUBE-1 1 39417U 13066B 26162.14161212 .00003110 00000-0 24354-3 0 9991 2 39417 97.8086 124.4456 0040187 268.8905 90.7715 15.01151583679829 Delfi-N3xt 1 39428U 13066N 26161.75272242 .00003879 00000-0 34176-3 0 9990 2 39428 97.8344 82.0706 0073088 227.4412 132.0625 14.95021248673667 GOMX-1 1 39430U 13066Q 26162.26179428 .00001813 00000-0 27627-3 0 9991 2 39430 97.6495 3.0988 0130175 96.3401 265.2649 14.69437683669049 LO-74 1 39440U 13066AA 26162.30229726 .00003136 00000-0 29203-3 0 9996 2 39440 97.8900 111.2555 0058933 48.0727 312.5496 14.93713369676118 AO-73 1 39444U 13066AE 26162.15665586 .00005346 00000-0 33386-3 0 9993 2 39444 97.8261 133.4764 0035086 221.9456 137.9084 15.09415537678753 DTUSAT-2 1 40030U 14033W 26161.96327347 .00005814 00000-0 31578-3 0 9990 2 40030 98.0860 159.2954 0006224 251.1967 108.8589 15.14937796651744 LILACSAT-2 1 40908U 15049K 26162.27356870 .00015358 00000-0 26363-3 0 9990 2 40908 97.4659 198.8907 0005272 273.7919 86.2730 15.51249008594839 Horyu-4 1 41340U 16012D 26161.10844880 .00337518 00000-0 10043-2 0 9998 2 41340 30.9844 130.8123 0003461 226.4757 133.5616 15.90526809569681 Lapan A3 1 41603U 16040E 26162.25156476 .00002829 00000-0 90770-4 0 9996 2 41603 97.1484 158.5923 0011539 45.2474 314.9706 15.33066222553909 CAS-2T 1 41847U 16066G 26162.21485714 .00001469 00000-0 21323-3 0 9996 2 41847 98.3821 238.0193 0342591 147.5449 214.7325 14.44674149503939 TechnoSat 1 42829U 17042E 26162.19870278 .00003039 00000-0 21801-3 0 9998 2 42829 97.4261 320.0853 0018786 113.2228 247.0979 15.04916875485805 AO-91 1 43017U 17073E 26162.12228750 .00008448 00000-0 36925-3 0 9999 2 43017 97.4719 29.4615 0150507 350.2461 9.5854 15.12618427464473 S-Net D 1 43186U 18014G 26162.19409217 .00004119 00000-0 21404-3 0 9995 2 43186 97.5372 67.0223 0009494 48.4267 311.7779 15.16615806457857 S-Net B 1 43187U 18014H 26162.20542910 .00004431 00000-0 23012-3 0 9990 2 43187 97.5377 67.0199 0009998 43.9462 316.2564 15.16585828457853 S-Net A 1 43188U 18014J 26162.19300148 .00004083 00000-0 21211-3 0 9996 2 43188 97.5386 67.2150 0009884 44.6927 315.5101 15.16623590457859 S-Net C 1 43189U 18014K 26162.20927486 .00004589 00000-0 23820-3 0 9998 2 43189 97.5404 67.3051 0011077 36.9313 323.2681 15.16577817456401 Ten-Koh 1 43677U 18084G 26162.26484243 .00001902 00000-0 14650-3 0 9999 2 43677 98.0781 354.3790 0010945 132.2105 228.0050 15.02918849415279 PO-101 1 43678U 18084H 26162.30129929 .00002254 00000-0 18423-3 0 9995 2 43678 98.1179 358.2542 0012188 189.3169 170.7829 15.00424032415332 QO-100 1 43700U 18090A 26162.20051153 .00000162 00000-0 00000-0 0 9995 2 43700 0.0163 315.1028 0001882 166.8922 235.5685 1.00274232 27610 MinXSS-2 1 43758U 18099A 26162.20446820 .00029910 00000-0 60280-3 0 9997 2 43758 97.4545 238.3154 0006264 280.3694 79.6849 15.46496855413205 AO-95 1 43770U 18099N 26162.11310128 .00010727 00000-0 41211-3 0 9991 2 43770 97.4393 222.3819 0008614 20.0469 340.1107 15.26583130412293 SNUSat 2 1 43782U 18099AA 26162.08669346 .00007553 00000-0 33591-3 0 9994 2 43782 97.4070 215.5641 0008952 323.4786 36.5839 15.21747187412109 SnugLite 1 43784U 18099AC 26162.11537671 .00010460 00000-0 39674-3 0 9994 2 43784 97.3877 216.4553 0001521 337.6782 22.4390 15.27045448412399 ITASat 1 1 43786U 18099AE 26162.09302702 .00006474 00000-0 31210-3 0 9996 2 43786 97.4034 213.7264 0012787 21.6014 338.5758 15.18980538411981 EAGLET 1 1 43790U 18099AJ 26162.10027979 .00003650 00000-0 21071-3 0 9990 2 43790 97.4234 211.9299 0011286 15.3419 344.8152 15.12892698411417 ESEO 1 43792U 18099AL 26161.86085478 .00001835 00000-0 13604-3 0 9998 2 43792 97.3965 199.5197 0011984 1.3380 358.7877 15.04221908410850 JO-97 1 43803U 18099AX 26162.15801633 .00013564 00000-0 42148-3 0 9990 2 43803 97.4137 224.9718 0004125 291.9948 68.0856 15.33460341412705 Suomi 100 1 43804U 18099AY 26162.11735181 .00011134 00000-0 40630-3 0 9996 2 43804 97.4191 222.5335 0008433 304.5963 55.4481 15.28276895412492 ISAT 1 43879U 18111D 26162.08703743 .00087482 00000-0 91371-3 0 9995 2 43879 97.5881 96.8435 0001460 55.1324 305.0072 15.64205327410217 UWE-4 1 43880U 18111E 26162.06603225 .00030336 00000-0 62723-3 0 9994 2 43880 97.5852 90.1763 0006667 7.8986 352.2366 15.45743461409831 Sparrow 1 43881U 18111F 26162.08988774 .00138135 00000-0 10146-2 0 9999 2 43881 97.6115 102.3584 0004611 103.2888 256.8889 15.72684748410418 Prox-1 1 44339U 19036A 26162.29999190 .00010469 00000-0 10182-2 0 9991 2 44339 23.9927 153.5771 0005376 327.2925 32.7241 14.90469737372592 Taurus 1 1 44530U 19059C 26162.26124131 .00004957 00000-0 79739-3 0 9990 2 44530 98.6409 326.7223 0007717 337.3357 22.7506 14.72034125357772 TO-108 1 44881U 19093C 26162.25584780 .00000300 00000-0 39844-4 0 9998 2 44881 97.7531 234.6325 0014998 104.3841 255.9041 14.86509084350533 RS-44 1 44909U 19096E 26162.21975991 .00000030 00000-0 69852-4 0 9998 2 44909 82.5217 343.6711 0217909 158.0781 202.9821 12.79748722301586 SALSAT 1 46495U 20068K 26162.25849645 .00006276 00000-0 22076-3 0 9995 2 46495 97.8851 164.9624 0008555 332.6699 27.4089 15.29713226314456 CSS (TIANHE-1) 1 48274U 21035A 26162.21782796 .00020697 00000-0 24653-3 0 9992 2 48274 41.4694 358.3237 0008197 28.9315 331.1976 15.60563857292233 CUTE 1 49263U 21088D 26162.21741475 .00170126 12795-4 53187-3 0 9993 2 49263 97.4171 260.9418 0007805 241.5311 118.5177 15.91463951261601 TeikyoSat 4 1 49396U 21102B 26162.08834978 .00001827 00000-0 11775-3 0 9993 2 49396 97.3672 191.8089 0010870 320.4034 39.6401 15.09487228251800 Z-Sat 1 49399U 21102E 26162.33220044 .00003699 00000-0 18355-3 0 9997 2 49399 97.3333 197.8326 0014728 267.6286 92.3262 15.18220871252557 KOSEN 1 1 49402U 21102H 26162.11205791 .00006598 00000-0 25305-3 0 9994 2 49402 97.3194 204.3874 0012588 223.0515 136.9740 15.26751252253099 HO-113 1 50466U 21131B 26162.29280806 .00000396 00000-0 13603-3 0 9995 2 50466 98.4972 254.7143 0005283 110.2799 249.8958 14.41352095234261 SNUGLITE 2 1 52899U 22065F 26162.15460763 .00000789 00000-0 15855-3 0 9998 2 52899 98.2195 306.9962 0008353 50.1819 310.0117 14.64336421210119 UmKA 1 (RS40S) 1 57172U 23091G 26162.23793883 .00005402 00000-0 24797-3 0 9990 2 57172 97.5058 220.9579 0013995 136.2381 223.9966 15.20747886163109 CubeBel-2 (EU11S) 1 57175U 23091K 26162.22873179 .00010136 00000-0 36184-3 0 9992 2 57175 97.5059 225.3927 0011181 132.7183 227.5000 15.29005097163395 RS-38S 1 57189U 23091Z 26162.21906302 .00014070 00000-0 40518-3 0 9998 2 57189 97.5098 231.5852 0008585 95.4893 264.7330 15.35833105163773 SONATE-2 1 59112U 24043Q 26161.91025014 .00035885 00000-0 47424-3 0 9992 2 59112 97.5521 311.9242 0006761 216.8986 143.1805 15.58250405126917 GRBBeta 1 60237U 24128C 26161.91498095 .00003192 00000-0 22493-3 0 9994 2 60237 61.9897 238.2715 0041491 133.2900 227.1666 15.06598569105320 Curium One 1 60242U 24128H 26161.75722739 .00006323 00000-0 36755-3 0 9992 2 60242 61.9783 228.5469 0040806 129.1189 231.3546 15.12430598105485 ROBUSTA-3A 1 60243U 24128J 26161.51999058 .00005875 00000-0 35005-3 0 9995 2 60243 61.9859 231.8200 0042079 126.8629 233.6336 15.11597596105413 CatSat 1 60246U 24125J 26161.58966991 .00047317 00000-0 62631-3 0 9994 2 60246 97.2101 14.0090 0022134 202.7897 157.2379 15.57876707106364 HYPERVIEW-1G (RS66S) 1 61772U 24199AP 26162.28127076 .00111715 00000-0 76907-3 0 9996 2 61772 97.2896 41.7086 0002555 254.6134 105.4849 15.74295435133748 AO-123 1 61781U 24199AY 26162.23527010 .00006454 00000-0 18841-3 0 9999 2 61781 97.3016 30.9602 0012903 337.4887 22.5789 15.35589258133018 JINJUSat 1B 1 63210U 25052A 26161.68555863 .00013922 00000-0 43465-3 0 9990 2 63210 97.4020 58.4325 0005405 104.8650 255.3191 15.33297809 69100 NUSHSAT 1 1 63211U 25052B 26162.13054752 .00019525 00000-0 56312-3 0 9993 2 63211 97.3996 59.4231 0005181 105.5334 254.6482 15.35734013 69219 TEVEL2-4 1 63213U 25052D 26162.18292589 .00015571 00000-0 46925-3 0 9998 2 63213 97.3916 58.5659 0004700 114.3674 245.8060 15.34397986 69192 TEVEL2-5 1 63214U 25052E 26162.20275645 .00015444 00000-0 46795-3 0 9990 2 63214 97.3918 58.5347 0004587 115.8505 244.3212 15.34228834 69199 TEVEL2-6 1 63215U 25052F 26162.21494849 .00015699 00000-0 47618-3 0 9998 2 63215 97.3920 58.5314 0004507 115.9282 244.2426 15.34192620 69191 TEVEL2-1 1 63217U 25052H 26161.98093278 .00016627 00000-0 51263-3 0 9997 2 63217 97.3892 57.9289 0004415 125.2474 234.9182 15.33660807 69146 TEVEL2-3 1 63218U 25052J 26161.97579687 .00016410 00000-0 50516-3 0 9990 2 63218 97.3892 57.9448 0004429 126.0042 234.1612 15.33713763 69149 TEVEL2-2 1 63219U 25052K 26161.65505291 .00015595 00000-0 48110-3 0 9996 2 63219 97.3891 57.6053 0004383 127.1884 232.9759 15.33656754 69091 TEVEL2-9 1 63237U 25052AD 26162.21203343 .00013315 00000-0 43675-3 0 9991 2 63237 97.3952 57.5501 0007303 147.3621 212.8073 15.31712715 69111 TEVEL2-7 1 63238U 25052AE 26161.99043871 .00014830 00000-0 49055-3 0 9995 2 63238 97.3955 57.2476 0007322 148.6596 211.5083 15.31416691 69075 TEVEL2-8 1 63239U 25052AF 26162.12930988 .00014686 00000-0 48599-3 0 9997 2 63239 97.3951 57.3633 0007326 149.0295 211.1379 15.31404962 69097 SPIRONE 1 66657U 25274H 26161.75628744 .00002428 00000-0 23560-3 0 9994 2 66657 97.7481 91.1394 0013246 42.2405 317.9833 14.93519729 29261 K-HERO 1 66660U 25274L 26161.76267969 .00002102 00000-0 20244-3 0 9992 2 66660 97.7488 91.3021 0015238 45.4571 314.7890 14.93939777 29271 SNUGLITE-III DURI 1 66661U 25274M 26162.08551435 .00001874 00000-0 18087-3 0 9990 2 66661 97.7488 91.6409 0015739 44.8045 315.4443 14.93980789 29327 SAKHACUBE-CHOLBON 1 67290U 25313AU 26162.18859736 .00007538 00000-0 30655-3 0 9997 2 67290 97.3935 237.2986 0009469 26.4759 333.6961 15.24781437 25066 RS95S (QMR-KWT-2) 1 67291U 25313AV 26162.18229369 .00010654 00000-0 41483-3 0 9995 2 67291 97.3936 237.4555 0008841 25.2821 334.8848 15.26136561 25074 Ten-Koh2 1 68261U 25241B 26161.72007287 .00005667 00000-0 24553-3 0 9992 2 68261 51.6686 350.4048 0006326 123.3884 236.7700 15.23827135 13924 JACK-002 1 68417U 26067B 26161.64137053 .00006204 00000-0 29703-3 0 9998 2 68417 97.4558 120.3129 0000923 19.5649 340.5621 15.19312449 10957 DISCO 2 1 68431U 26067R 26162.25400237 .00006374 00000-0 30796-3 0 9991 2 68431 97.4592 120.9068 0003363 53.4854 306.6689 15.18981573 11042 HADES-SA (SpinnyONE) 1 68446U 26067AG 26161.83178714 .00017132 00000-0 82335-3 0 9992 2 68446 97.4392 120.2233 0010003 98.9208 261.3159 15.18844658 10960 PARUS-6U1 1 68456U 26067AS 26161.85815733 .00004842 00000-0 24510-3 0 9999 2 68456 97.4544 120.3191 0007651 88.1381 272.0728 15.17450004 10971 SAL-E 1 68458U 26067AU 26161.85454276 .00006270 00000-0 31438-3 0 9996 2 68458 97.4467 120.2557 0007999 95.1253 265.0894 15.17665230 10978 FSI-SAT 2 1 68792U 26088A 26160.91453648 .00003818 00000-0 25998-3 0 9997 2 68792 97.5046 310.3575 0015575 129.6269 230.6336 15.06772756 7193 OrigamiSat 2 1 68795U 26088D 26162.12657880 .00002823 00000-0 18400-3 0 9994 2 68795 97.5007 311.6580 0016405 100.0294 260.2787 15.08593796 7384 ARICA 2 1 68796U 26088E 26161.99209556 .00003451 00000-0 22535-3 0 9994 2 68796 97.5047 311.5196 0017224 99.6685 260.6490 15.08377331 7366 WASEDA-SAT-ZERO-II 1 68797U 26088F 26161.92232533 .00005059 00000-0 32668-3 0 9993 2 68797 97.5045 311.4586 0016982 99.8571 260.4575 15.08570265 7355 MANGARO-II-Piscus 1 68798U 26088G 26161.91341859 .00003514 00000-0 22682-3 0 9994 2 68798 97.5054 311.4764 0020480 102.5179 257.8342 15.08736547 7357 IO-86 1 40931U 25360.30710720 .00000000 00000-0 12800-3 0 00 2 40931 6.0006 332.5373 0012733 338.8432 8.1437 14.79075515 01 LILIUM-4 1 71922C 26067AC 26089.50133053 -.00014632 00000 0 -74472-3 0 04 2 71922 97.4497 49.1617 0004341 5.9603 355.7042 15.16896692 16